Wind_Speed
32 30 30 26 20 21 18 18 17 17 15 14 14 18 12 10 8 4 5 8 11 10
32 38 34 33 25 19 20 18 23 22 22 18 17 16 13 13 12 15 9 6 5 2
37 36 38 33 31 29 23 21 23 26 26 23 21 19 17 15 14 9 8 8 8 10
40 38 36 36 34 34 31 29 25 27 27 24 23 22 20 18 15 13 10 8 13 16
41 40 41 40 39 39 36 35 36 35 33 29 27 25 23 19 23 19 14 11 10 12
44 43 43 43 42 42 41 40 39 40 38 34 32 28 27 21 18 19 18 16 13 13
46 46 45 43 43 41 43 42 42 41 40 38 35 32 30 25 19 21 21 20 17 15
46 46 45 44 43 41 41 43 43 40 41 39 37 35 34 30 21 23 23 22 21 17
42 44 44 43 41 40 39 43 43 43 41 41 41 38 36 36 24 23 24 24 22 19
43 44 44 40 38 39 40 40 41 40 38 39 39 38 36 32 24 20 22 24 21 20
45 46 43 38 37 36 39 40 40 38 35 33 36 38 35 27 20 20 23 23 22 19
43 43 41 37 36 34 33 35 36 33 30 30 35 33 36 28 26 26 26 29 24 22
37 37 38 36 33 31 31 28 27 29 29 28 29 31 30 27 27 24 19 23 22 21
37 37 34 31 29 29 27 25 25 25 24 23 22 26 28 25 21 20 19 16 20 19
Wind_Direction
209 212 211 209 211 218 210 223 237 230 231 217 198 207 204 184 179 192 256 219 198 198
216 213 214 213 202 212 207 216 225 232 241 228 221 211 208 200 176 183 217 238 241 280
222 218 218 216 215 215 210 211 229 234 239 234 217 220 219 200 199 203 198 204 209 246
223 225 221 218 217 224 216 211 226 235 241 238 225 221 215 204 212 235 222 203 215 219
223 226 228 223 223 225 230 222 222 231 239 240 232 225 218 204 208 237 241 229 220 222
223 227 230 232 227 229 233 233 234 235 237 240 237 231 223 219 226 240 233 230 225 229
223 227 231 233 235 231 233 237 239 239 242 241 241 235 227 223 234 239 230 229 232 229
223 227 229 230 233 235 233 239 242 243 242 240 237 236 230 225 237 236 235 237 237 230
221 224 227 228 227 230 229 234 241 243 242 240 240 240 234 227 235 238 241 244 241 233
220 223 225 226 227 226 228 237 241 245 241 242 242 242 234 232 230 232 240 248 250 242
215 219 219 223 226 229 232 234 241 241 245 240 238 238 229 226 221 232 237 243 241 241
212 211 214 221 228 232 230 235 236 245 248 242 239 240 235 236 236 261 265 239 235 244
201 206 217 225 223 226 231 235 234 243 246 247 247 234 235 245 257 257 242 238 238 249
197 205 217 221 221 225 223 228 232 235 241 249 251 237 239 248 250 255 227 235 249 250
Height
1528 1531 1534 1538 1541 1543 1545 1546 1546 1548 1550 1551 1552 1551 1550 1550 1554 1558 1562 1563 1563 1564
1521 1524 1528 1532 1536 1538 1541 1544 1543 1544 1545 1546 1546 1548 1549 1550 1549 1548 1555 1560 1561 1563
1512 1517 1522 1527 1529 1533 1537 1540 1538 1538 1540 1542 1545 1545 1549 1551 1551 1549 1547 1551 1557 1559
1506 1509 1515 1519 1522 1525 1530 1533 1532 1533 1535 1537 1539 1542 1545 1547 1549 1547 1547 1546 1549 1553
1498 1503 1506 1511 1515 1519 1522 1526 1529 1528 1529 1531 1534 1537 1540 1542 1544 1544 1543 1544 1544 1549
1490 1494 1498 1502 1508 1511 1514 1517 1520 1521 1524 1526 1528 1531 1534 1537 1538 1540 1540 1541 1538 1542
1480 1485 1489 1495 1499 1504 1507 1510 1512 1516 1518 1520 1523 1526 1529 1531 1534 1536 1536 1537 1536 1537
1473 1478 1483 1488 1492 1496 1500 1501 1503 1507 1509 1513 1514 1517 1521 1525 1527 1529 1532 1532 1531 1531
1467 1471 1474 1480 1485 1489 1492 1494 1496 1499 1501 1502 1507 1513 1512 1516 1519 1522 1525 1527 1527 1527
1459 1462 1467 1473 1478 1482 1486 1488 1490 1493 1497 1499 1503 1506 1511 1512 1514 1517 1519 1521 1523 1525
1452 1455 1460 1467 1471 1476 1479 1482 1485 1489 1492 1495 1496 1499 1504 1509 1512 1512 1515 1514 1516 1519
1445 1449 1455 1460 1465 1470 1475 1478 1481 1484 1486 1489 1491 1495 1498 1502 1505 1507 1507 1510 1511 1513
1440 1445 1451 1456 1461 1466 1470 1473 1477 1479 1481 1485 1487 1489 1493 1495 1498 1498 1497 1500 1504 1507
1435 1441 1447 1451 1456 1459 1464 1469 1472 1474 1477 1481 1484 1486 1489 1490 1492 1493 1496 1498 1498 1500